Date,TemperatureHighF,TemperatureAvgF,TemperatureLowF,DewpointHighF,DewpointAvgF,DewpointLowF,HumidityHigh,HumidityAvg,HumidityLow,PressureMaxIn,PressureMinIn,WindSpeedMaxMPH,WindSpeedAvgMPH,GustSpeedMaxMPH,PrecipitationSumIn
2013-8-1,75,62,50,60,53,49,98,75,46,29.88,29.76,4,1,13,0.00
2013-8-2,75,63,50,60,52,48,98,73,41,29.97,29.74,4,1,13,0.00
2013-8-3,73,60,46,59,50,45,97,72,42,30.12,29.97,4,1,12,0.00
2013-8-4,74,60,46,57,51,44,98,75,44,30.15,29.94,4,0,11,0.00
2013-8-5,70,62,55,67,60,52,98,95,85,29.94,29.74,4,1,15,0.66
2013-8-6,75,66,61,65,62,60,98,88,59,29.76,29.65,5,1,14,0.08
2013-8-7,73,64,52,62,55,47,98,75,42,29.94,29.71,5,1,11,0.05
2013-8-8,74,59,48,62,55,47,98,86,50,29.94,29.88,6,1,14,0.16
2013-8-9,71,61,51,57,53,46,98,77,44,30.03,29.85,5,1,14,0.00
2013-8-10,72,62,54,60,55,52,96,80,52,30.09,30.00,4,0,11,0.00
2013-8-11,77,62,48,63,54,48,98,78,43,30.15,29.97,3,0,10,0.00
2013-8-12,76,63,49,63,53,47,98,73,47,30.09,29.97,4,1,17,0.00
2013-8-13,70,56,43,57,48,42,98,76,47,30.18,30.09,4,1,11,0.00
2013-8-14,72,59,42,56,48,41,98,71,39,30.21,30.09,3,1,8,0.00
2013-8-15,78,62,49,60,52,47,98,74,38,30.15,30.06,3,1,13,0.00
2013-8-16,81,65,50,64,54,48,97,72,36,30.21,30.09,5,1,17,0.00
2013-8-17,82,67,51,62,54,50,97,69,39,30.24,30.12,9,2,21,0.00
2013-8-18,81,69,56,61,55,53,92,64,40,30.15,30.03,8,2,24,0.00
2013-8-19,84,72,65,68,62,56,82,71,53,30.06,29.97,13,3,21,0.00
2013-8-20,89,77,66,71,68,64,94,75,53,30.00,29.97,8,2,20,0.00
2013-8-21,83,74,62,75,69,60,95,84,62,30.09,29.91,6,1,16,0.00
2013-8-22,80,68,55,60,52,44,97,63,31,30.18,30.06,4,1,11,0.00
2013-8-23,83,65,47,58,50,45,95,65,29,30.18,30.12,4,1,11,0.00
2013-8-24,84,73,63,71,65,58,92,76,55,30.15,30.03,15,3,29,0.04
2013-8-25,94,83,74,74,72,69,90,71,46,30.09,30.06,9,4,27,0.00
2013-8-26,86,77,70,78,74,69,98,90,75,30.09,29.97,4,1,23,2.12
2013-8-27,82,74,68,76,72,67,98,93,75,30.00,29.88,3,0,11,0.13
2013-8-28,84,72,63,72,67,61,98,86,48,30.12,30.00,3,0,12,0.00
2013-8-29,84,72,66,75,69,65,98,92,71,30.09,29.88,7,1,19,0.50
2013-8-30,79,70,60,70,67,60,98,90,63,30.03,29.88,4,1,11,0.00
2013-8-31,82,69,56,68,63,56,98,84,60,29.94,29.76,9,1,15,0.28